INMARSAT 3-F2

导读 | 星芒AI

INMARSAT 3-F2 是一颗由欧洲航天局(ESA)建造、国际海事卫星组织(Inmarsat)运营的通信卫星,于2005年发射。该卫星位于地球静止轨道,主要提供L波段的移动卫星通信服务,广泛应用于海事、航空和陆地移动领域。INMARSAT 3-F2 配备多波束天线,支持高数据传输速率和区域覆盖,增强了通信的可靠性和灵活性。作为INMARSAT第三代卫星系统的一部分,它在远程通信和应急响应中发挥着重要作用。

基本信息
目录编号:
24307
目录名称:
INMARSAT 3-F2
国际标识:
1996-053A
轨道中心:
EARTH
卫星名称:
INMARSAT 3-F2
卫星全名:
--
卫星状态:
在轨 (已飞行10690 天)
发射日期:
1996-09-06 UTC
国别 :
(IM)
星等 :
--
轨道信息
数据来源 国际轨道数据 AOE轨道数据
星历时间 2025-12-13T07:38:51+0800
10小时前
查看轨道信息
2025-12-13T10:00:00+0800
7小时前
查看轨道信息
半长轴 42240.871km 42240.786km
偏心率 0.0006332 0.0006151
轨道倾角 9.435° 9.435°
近地点辐角 203.837° 203.257°
升交点赤经 55.807° 55.806°
平近点角 154.886° 190.757°
近地点 35835.989km 35836.668km
远地点 35889.483km 35888.634km
周期 1439.988分钟 1439.984分钟
每日圈数 1.000008 1.000011
详细信息
使用方式:
暂无
2D轨道图
3D轨道图
轨道高度分析图
轨道倾角分析图
轨道综合分析图
查看轨道综合分析图